Location: Linz
(48.3300°N, 14.3000°E)
Time: 22:05:10
(UTC+02:00)

Vanguard 1 - All Passes

Search period start: 23 June 2018 00:00
Search period end: 03 July 2018 00:00
Orbit: 650 x 3833 km, 34.3° (Epoch: 22 June)

Date Brightness Start Highest point End Pass type
(mag) Time Alt. Az. Time Alt. Az. Time Alt. Az.
23 Jun - 05:44:51 10° S 05:52:13 24° SE 06:03:17 10° E daylight
23 Jun - 08:01:32 10° SW 08:12:32 46° SSE 08:30:57 10° ESE daylight
23 Jun - 10:21:10 10° WSW 10:35:31 48° S 10:56:36 10° SE daylight
23 Jun - 12:43:27 10° W 12:59:13 33° SSW 13:17:59 10° SSE daylight
23 Jun - 15:15:13 10° WSW 15:21:20 12° SW 15:27:32 10° SW daylight
24 Jun - 06:04:33 10° SSW 06:12:29 29° SE 06:25:04 10° E daylight
24 Jun - 08:22:03 10° WSW 08:33:20 47° S 08:52:11 10° ESE daylight
24 Jun - 10:42:04 10° W 10:56:29 44° SSW 11:17:11 10° SE daylight
24 Jun - 13:05:11 10° W 13:19:54 27° SW 13:37:01 10° S daylight
25 Jun - 06:24:33 10° SSW 06:32:52 34° SSE 06:46:38 10° E daylight
25 Jun - 08:42:40 10° WSW 08:54:12 48° S 09:13:18 10° ESE daylight
25 Jun - 11:03:07 10° W 11:17:25 40° SSW 11:37:28 10° SE daylight
25 Jun - 13:27:27 10° W 13:40:30 21° SW 13:55:18 10° S daylight
26 Jun - 04:30:02 10° SSE 04:34:20 15° SE 04:39:50 10° ESE daylight
26 Jun - 06:44:46 10° SW 06:53:23 38° SSE 07:08:02 10° E daylight
26 Jun - 09:03:23 10° WSW 09:15:06 47° S 09:34:17 10° ESE daylight
26 Jun - 11:24:17 10° W 11:38:18 35° SSW 11:57:24 10° SSE daylight
26 Jun - 13:50:48 10° WSW 14:01:02 16° SW 14:12:16 10° SSW daylight
27 Jun - 04:48:59 10° S 04:54:28 20° SE 05:02:13 10° E daylight
27 Jun - 07:05:08 10° SW 07:14:02 41° SSE 07:29:21 10° ESE daylight
27 Jun - 09:24:10 10° WSW 09:36:02 44° S 09:55:04 10° SE daylight
27 Jun - 11:45:41 10° W 11:59:09 30° SSW 12:16:53 10° SSE daylight
27 Jun - 14:18:04 10° WSW 14:21:30 11° SW 14:25:03 10° SW daylight
28 Jun - 05:08:35 10° SSW 05:14:43 24° SE 05:24:01 10° E daylight
28 Jun - 07:25:38 10° WSW 07:34:45 43° S 07:50:34 10° ESE daylight
28 Jun - 09:45:03 10° WSW 09:56:57 41° SSW 10:15:37 10° SE daylight
28 Jun - 12:07:26 10° W 12:19:56 25° SW 12:35:47 10° S daylight
29 Jun - 05:28:32 10° SSW 05:35:06 29° SSE 05:45:34 10° E daylight
29 Jun - 07:46:14 10° WSW 07:55:34 43° S 08:11:39 10° ESE daylight
29 Jun - 10:06:03 10° WSW 10:17:53 36° SSW 10:35:52 10° SE daylight
29 Jun - 12:29:49 10° WSW 12:40:40 19° SW 12:53:48 10° S daylight
30 Jun - 03:35:42 10° SE 03:36:59 10° SE 03:38:22 10° SE visible
30 Jun - 05:48:44 10° SW 05:55:35 33° SSE 06:06:56 10° ESE daylight
30 Jun - 08:06:55 10° WSW 08:16:24 42° S 08:32:35 10° ESE daylight
30 Jun - 10:27:13 10° WSW 10:38:48 32° SSW 10:55:44 10° SSE daylight
30 Jun - 12:53:37 10° WSW 13:01:21 14° SW 13:10:08 10° SSW daylight
01 Jul - 03:53:31 10° S 03:57:09 15° SE 04:01:48 10° ESE visible
01 Jul - 06:09:05 10° SW 06:16:11 36° SSE 06:28:11 10° ESE daylight
01 Jul - 08:27:41 10° WSW 08:37:17 39° S 08:53:20 10° SE daylight
01 Jul - 10:48:40 10° WSW 10:59:41 26° SSW 11:15:07 10° SSE daylight
02 Jul - 04:12:54 10° S 04:17:26 19° SSE 04:23:43 10° ESE visible
02 Jul - 06:29:34 10° SW 06:36:51 37° S 06:49:19 10° ESE daylight
02 Jul - 08:48:34 10° WSW 08:58:10 36° SSW 09:13:50 10° SE daylight
02 Jul - 11:10:32 10° WSW 11:20:33 21° SSW 11:33:49 10° S daylight
